Home   Weather   Frechen   Past weeks
Flag for Germany

Past Weather in Frechen, North Rhine-Westphalia, Germany — Yesterday and Last 2 Weeks

Now
32 °F

Passing clouds.


Feels Like: 26 °F
Forecast: 48 / 36 °F
Wind: 6 mph from West

Location: Noervenich

Current Time: Apr 2, 2020 at 7:40:44 am

Latest Report: Apr 2, 2020 at 6:20 am


Visibility: N/A

Pressure: 29.98 "Hg

Humidity: 80%

Dew Point: 27 °F

Location of FrechenLocation

Past Weather in Frechen — Graph

°F

Frechen Temperature Yesterday

Maximum temperature yesterday: 50 °F (at 3:20 pm)
Minimum temperature yesterday: 25 °F (at 7:20 am)
Average temperature yesterday: 39 °F

High & Low Weather Summary for the Past Weeks

 TemperatureHumidityPressure
High63 °F (Mar 18, 2:20 pm)100% (Mar 31, 4:20 am)30.48 "Hg (Mar 31, 4:20 am)
Low25 °F (Mar 30, 6:20 am)14% (Mar 25, 3:20 pm)29.98 "Hg (Apr 2, 5:20 am)
Average43 °F57%30.28 "Hg
* Reported Mar 18 5:20 am — Apr 2 6:20 am, Frechen. Weather by CustomWeather, © 2020

Note: Actual official high and low records may vary slightly from our data, if they occured in-between our weather recording intervals... More about our weather records

Frechen Weather History for the Previous 24 Hours

Scroll right to see more
 ConditionsComfort  
Time TempWeatherWind HumidityBarometerVisibility
6:20 am
Thu, Apr 2
32 °FPassing clouds.6 mph80%29.98 "HgN/A
5:20 am32 °FChilly.8 mph80%29.98 "HgN/A
4:20 am32 °FChilly.7 mph80%30.01 "HgN/A
3:20 am34 °FChilly.3 mph75%30.01 "HgN/A
2:20 am30 °FChilly.2 mph80%30.01 "HgN/A
1:20 am32 °FChilly.2 mph75%30.04 "HgN/A
12:20 am34 °FChilly.5 mph70%30.04 "HgN/A
11:20 pm
Wed, Apr 1
37 °FChilly.1 mph56%30.04 "HgN/A
10:20 pm37 °FChilly.1 mph56%30.04 "HgN/A
9:20 pm41 °FQuite cool.No wind49%30.04 "HgN/A
8:20 pm45 °FQuite cool.3 mph42%30.04 "HgN/A
7:20 pm48 °FCool.5 mph37%30.07 "HgN/A
6:20 pm50 °FCool.6 mph35%30.07 "HgN/A
5:20 pm50 °FCool.7 mph32%30.07 "HgN/A
4:20 pm50 °FCool.3 mph30%30.09 "HgN/A
3:20 pm50 °FCool.5 mph30%30.12 "HgN/A
2:20 pm48 °FCool.5 mph34%30.12 "HgN/A
1:20 pm46 °FCool.3 mph37%30.15 "HgN/A
12:20 pm46 °FPassing clouds.3 mph37%30.18 "HgN/A
11:20 am45 °FPassing clouds.2 mph42%30.21 "HgN/A
10:20 am41 °FPassing clouds.2 mph45%30.21 "HgN/A
9:20 am34 °FPassing clouds.2 mph70%30.21 "HgN/A
8:20 am30 °FPassing clouds.3 mph69%30.21 "HgN/A
7:20 am25 °FPassing clouds.1 mph86%30.24 "HgN/A
Weather by CustomWeather, © 2020

See weather overview

Advertising